Regional Weather Roundup
Issued by NWS

Home | Current Version | Previous Version | Graphics & Text | Print | Product List | Glossary On
Versions: 1 2 3 4 5 6 7 8 9 10 11 12 13 14 15 16 17 18 19 20 21 22 23 24 25 26 27 28 29 30 31 32 33 34 35 36 37 38 39 40 41 42 43 44 45 46 47 48 49 50
000
ASUS43 KMKX 201121
RWRWI

WISCONSIN REGIONAL WEATHER ROUNDUP
NATIONAL WEATHER SERVICE MILWAUKEE/SULLIVAN WI
600 AM CDT FRI OCT 20 2017

NOTE: "FAIR" INDICATES FEW OR NO CLOUDS BELOW 12,000 FEET WITH NO
SIGNIFICANT WEATHER AND/OR OBSTRUCTIONS TO VISIBILITY.

WIZ001-002-006>008-014>016-023>028-201200-
NORTHWEST WISCONSIN

CITY           SKY/WX    TMP DP  RH WIND       PRES   REMARKS
SUPERIOR ARPT  FAIR      40  39  96 CALM      29.86S
ASHLAND        FAIR      51  41  68 S5        29.90S
HAYWARD        FAIR      51  44  77 S6        29.93S
SIREN          FAIR      54  47  76 S7        29.89S
CUMBERLAND     FAIR      43  37  81 CALM      29.94S
RICE LAKE      FAIR      47  40  76 SE3       29.96S
CHETEK         FAIR      47  41  80 E9        29.95S
LADYSMITH      FAIR      50  41  70 SE5       29.99S
EAU CLAIRE     FAIR      44  40  85 S3        29.96S
MENOMONIE      FAIR      48  44  86 E7        29.95S
NEW RICHMOND   FAIR      51  46  80 SE3       29.92S
OSCEOLA        FAIR      52  47  84 SE8       29.93S
$$

WIZ003>005-009-010-017-018-201200-
NORTH CENTRAL WISCONSIN

CITY           SKY/WX    TMP DP  RH WIND       PRES   REMARKS
MANITOWISH WTR FAIR      47  42  83 S6        29.97S
ARBOR VITAE    FAIR      52  43  71 S6        29.99S
WOODRUFF       FAIR      52  43  71 S6        29.99S
RHINELANDER    FAIR      53  44  71 SW9       30.01F
EAGLE RIVER    FAIR      45  38  76 CALM      30.00S
LAND O LAKES   FAIR      40  36  85 CALM      30.01S
PHILLIPS       FAIR      49  41  74 S6        29.98S
TOMAHAWK       FAIR      40  37  87 CALM      30.02S
MEDFORD        FAIR      44  38  81 S8        30.00F
MERRILL        FAIR      42  37  84 CALM      30.02F
$$

WIZ029-030-035-036-043>047-201200-
CENTRAL WISCONSIN

CITY           SKY/WX    TMP DP  RH WIND       PRES   REMARKS
WAUSAU         FAIR      49  39  68 SE5       30.02S
MOSINEE        CLEAR     48  41  76 S8        30.04S
MARSHFIELD     FAIR      46  39  76 S3        30.02R
STEVENS POINT  FAIR      44  38  80 CALM      30.04F
WAUPACA        FAIR      45  41  85 CALM      30.06S
WAUTOMA        FAIR      38  37  97 CALM      30.07S
WISC RAPIDS    FAIR      51  43  74 S6        30.04S
CAMP DOUGLAS   FAIR      46  44  91 S5        30.03S
$$

WIZ011>013-019>022-031-037>040-048>050-201200-
NORTHEAST WISCONSIN

CITY           SKY/WX    TMP DP  RH WIND       PRES   REMARKS
ANTIGO         FAIR      46  39  76 S5        30.04S
SHAWANO        FAIR      47  39  72 CALM      30.05S
OCONTO         FAIR      40  38  93 CALM      30.06S
STURGEON BAY   FAIR      52  39  61 S9        30.07S
GREEN BAY      FAIR      50  43  77 S7        30.06F
MANITOWOC      FAIR      50  34  54 S6        30.09F
APPLETON       CLEAR     52  39  62 S8        30.06R
CLINTONVILLE   FAIR      43  37  81 CALM      30.06S
OSHKOSH        FAIR      53  43  68 S13       30.07S
$$

WIZ032>034-041-042-053>061-201200-
SOUTHWEST WISCONSIN

CITY           SKY/WX    TMP DP  RH WIND       PRES   REMARKS
LA CROSSE      FAIR      57  50  77 S8        30.01S
SPARTA         FAIR      47  45  92 CALM      30.03S
VIROQUA        FAIR      54  50  86 S8        30.04S
BOSCOBEL       FAIR      42  40  92 CALM      30.06S
PRAIRIE DU CHI FAIR      55  48  75 CALM      30.05S
PLATTEVILLE    FAIR      52  51  95 S8        30.09S
$$

WIZ056-057-062-063-064-067-068-201200-
SOUTH CENTRAL WISCONSIN

CITY           SKY/WX    TMP DP  RH WIND       PRES   REMARKS
REEDSBURG      FAIR      54  47  77 S3        30.06S
BARABOO/DELLS  FAIR      53  46  75 S7        30.06S
LONE ROCK      FAIR      45  44  97 CALM      30.07S
MINERAL POINT  FAIR      52  48  87 S7        30.09S
MADISON        FAIR      54  46  74 S9        30.09S
MIDDLETON      FAIR      53  46  75 S8        30.09S
WATERTOWN      FAIR      50  46  84 S3        30.10S
MONROE         FAIR      50  45  81 S9        30.10S
JANESVILLE     FAIR      52  45  76 CALM      30.11S
$$

WIZ051-052-058>065-066-070>072-201200-
SOUTHEAST WISCONSIN

CITY           SKY/WX    TMP DP  RH WIND       PRES   REMARKS
MILWAUKEE      FAIR      54  43  66 SW9       30.13S
WAUKESHA       CLEAR     52  39  62 S8        30.14R
MILWAUKEE/TIMM FAIR      45  34  65 S3        30.13S
RACINE         FAIR      53  45  74 S7        30.15S
BURLINGTON     FAIR      43  43  99 CALM      30.13S
KENOSHA        FAIR      50  42  74 S6        30.14S
FOND DU LAC    FAIR      58  44  60 S8        30.09R
SHEBOYGAN      FAIR      46  37  71 S6        30.10S
WEST BEND      FAIR      46  36  66 CALM      30.11S
JUNEAU         FAIR      50  44  78 S6        30.11S
$$

LSZ147-162-201200-
LAKE SUPERIOR

STATION/POSITION TIME  TEMP    WIND        PRES    WAVE
                       AIR SEA DIR/SP/G            HT/PER
                 (UTC) (F)     (DEG/KT/KT) (MB)    (FT/S)
W MID LAKE BUOY  1050   55 52              1011.8F   1/ 4
DEVILS ISLAND    1100   57     190/  4/  5 1011.9F
PORT WING        0840          180/ 12/ 18 1011.9
SAXON HARBOR     1040   60     190/  8/ 14 1011.9S
$$

LMZ867-665-643>646-201200-
LAKE MICHIGAN

STATION/POSITION TIME  TEMP    WIND        PRES    WAVE
                       AIR SEA DIR/SP/G            HT/PER
                 (UTC) (F)     (DEG/KT/KT) (MB)    (FT/S)
S GREEN BAY BUOY 1030   56 58  180/ 12/ 14 1017.4S
N MID LAKE BUOY  1050   60 58  200/ 17/ 21 1018.5F   5/ 6
NORTHPORT PIER   1040   55     160/  7/ 10 1017.9S
KEWAUNEE LAKESHO 1100   54     200/ 11/ 14 1017.7
SHEBOYGAN LAKESH 1100   55     190/  8/  9 1019.3R
PORT WASHINGTON  1040   51     260/  3/  5 1020.7S
MILWAUKEE LAKESH 1100   55     210/  8/  9   N/A
S MID LAKE BUOY  1050   61 61  190/ 14/ 16 1021.2R   2/ 3
KENOSHA   LAKESH 1100   54     180/  5/  7 1020.7
$$

TC  - TEMPERATURE IN CELSIUS
VSB - VISIBILITY IN STATUTE MILES
WCI - WIND CHILL INDEX
HX  - HEAT INDEX





USA.gov is the U.S. government's official web portal to all federal, state and local government web resources and services.